Location: Mount Cross
(36.6390°N, 79.4878°W)
Time: 01:05:22
(UTC+00:00)

SR - Pass Details

Date: 05 April 2023
Orbit: 580 x 867 km, 66.7° (Epoch: 08 June)

Event Time Altitude Azimuth Distance (km) Brightness Sun altitude
Rises 03:47:03 0° 182° (S) 3,032 - -42.1°
Reaches altitude 10° 03:49:38 10° 172° (S) 2,072 - -42.4°
Maximum altitude 03:53:42 30° 111° (ESE) 1,122 - -42.8°
Drops below altitude 10° 03:57:34 10° 50° (NE) 1,960 - -43.2°
Sets 03:59:56 0° 39° (NE) 2,840 - -43.4°
